Regional Weather Roundup
Issued by NWS Northern Indiana

Home | Current Version | Previous Version | Text Only | Print | Product List | Glossary On
Versions: 1 2 3 4 5 6 7 8 9 10 11 12 13 14 15 16 17 18 19 20 21 22 23 24 25 26 27 28 29 30 31 32 33 34 35 36 37 38 39 40 41 42 43 44 45 46 47 48 49 50
000
ASUS43 KIWX 071000
RWRIWX

KIWX WEATHER ROUNDUP
NATIONAL WEATHER SERVICE NORTHERN INDIANA
600 AM EDT THU MAY 07 2015

NOTE: "FAIR" INDICATES FEW OR NO CLOUDS BELOW 12,000 FEET WITH NO
SIGNIFICANT WEATHER AND/OR OBSTRUCTIONS TO VISIBILITY.

* THESE STATIONS ARE NOT UNDER NWS QUALITY CONTROL. THEY ALSO MAY NOT
  REPORT WEATHER SUCH AS PRECIPITATION OR FOG.

INZ001>027-071100-
NORTHERN INDIANA

CITY           SKY/WX    TMP DP  RH WIND       PRES   REMARKS
GARY*          CLEAR     64 N/A N/A SE8       30.06F
SOUTH BEND     PTCLDY    61  58  90 SE7       30.11S FOG
GOSHEN         CLEAR     59  55  87 SE5       30.11S FOG
ANGOLA*        PTCLDY    55  54  94 SE3       30.13S
FORT WAYNE     CLEAR     55  53  93 E5        30.13S

$$
INZ028>050-071100-
CENTRAL INDIANA

CITY           SKY/WX    TMP DP  RH WIND       PRES   REMARKS
LAFAYETTE      CLEAR     58  54  86 E3        30.07F
KOKOMO*        CLEAR     59  55  88 SE3       30.10S
MUNCIE*        CLEAR     63  56  78 SE3       30.11S
INDIANAPOLIS   PTCLDY    64  52  64 E3        30.08S

$$
MIZ043>046-050>051-056>058-064>065-071>073-077>080-071100-
SOUTHWEST LOWER MICHIGAN

CITY           SKY/WX    TMP DP  RH WIND       PRES   REMARKS
BATTLE CREEK   CLEAR     58  55  90 SE3       30.13F
BENTON HARBOR  MOCLDY    61  58  90 SE9       30.09S
COLDWATER*     CLEAR     57  54  88 SE7       30.13S
HILLSDALE*     CLEAR     58  57  96 SE6       30.14F
HOLLAND        CLEAR     60  56  86 SE8       30.10S
GRAND RAPIDS   PTCLDY    60  55  83 SE7       30.11F
KALAMAZOO      CLEAR     58  54  86 CALM      30.13S FOG
STURGIS*       MOCLDY    59  55  88 SE6       30.12S
THREE RIVERS*  CLOUDY    55  54  95 CALM      30.12S FOG

$$
OHZ001>008-015>018-024>025-071100-
NORTHWEST OHIO

CITY           SKY/WX    TMP DP  RH WIND       PRES   REMARKS
DEFIANCE       CLEAR     54  52  93 NE3       30.13F FOG
FINDLAY        CLEAR     58  54  86 E5        30.13S
TOLEDO EXPRESS CLEAR     51  50  96 CALM      30.15S FOG
TOLEDO METCALF MOCLDY    52  50  93 NE5       30.16S FOG
LIMA           CLEAR     60  57  89 SE6       30.13S

$$
AND FOR LAKE MICHIGAN COASTAL AND OPEN LAKE BUOY OBSERVATIONS

STATION/POSITION TEMP    WIND        PRES    VSBY  WAVE
                 AIR SEA DIR/SP/G                  HT/PER
                 (F)     (DEG/KT/KT) (MB)    (MI)  (FT/S)
CALUMET HARBOR    58     150/  3/  4   N/A
MICHIGAN CITY     67     120/ 11/ 13   N/A
BURNS HARBOR      68     140/ 12/ 16 1018.6S
SAINT JOSEPH      63      CALM  /  8 1018.6F
4 MI NW BRIDGMAN  60 51  160/  8/ 10   N/A           1
MICHIGAN CITY     60 53  160/  8/ 10   N/A           1

$$
&&


USA.gov is the U.S. government's official web portal to all federal, state and local government web resources and services.